SCP
-0 -0 -0 -0 0 0 0 -0 -0 -0 0 -0 -0 -0 -0 -0 -0 -0 -0 -0 -0 -0 -0 -0 -0 -0 -0 -0 -0 -0 -0 -0 -0 -0 -0 -0 -0 -0 -0 -0 -0 -0 -0
-0 -0 0 0 -0 0 0 -0 -0 -0 0 0 0 -0 -0 -0 -0 -0 -0 -0 -0 -0 -0 -0 -0 -0 -0 -0 -0 -0 -0 -0 -0 -0 -0 -0 -0 -0 -0 -0 -0 -0 -0
-0 -0 -0 -0 -0 -0 -0 -0 -0 -0 -0 0 -0 -0 -0 -0 -0 -0 -0 -0 -0 -0 -0 -0 -0 -0 -0 -0 -0 -0 -0 -0 -0 -0 -0 -0 -0 -0 -0 -0 -0 -0 -0
-0 -0 -0 -0 -0 0 0 0 -0 -0 -0 -0 -0 -0 -0 -0 -0 -0 -0 -0 -0 -0 -0 -0 -0 -0 -0 -0 -0 -0 -0 -0 -0 -0 -0 -0 -0 -0 -0 -0 -0 -0 -0
0 -0 -0 0 -0 -0 -0 -0 -0 -0 -0 -0 -0 -0 -0 -0 -0 -0 -0 -0 -0 -0 -0 -0 -0 -0 -0 -0 -0 -0 -0 -0 -0 -0 -0 0 -0 -0 -0 -0 -0 -0 -0
0 -0 0 0 0 0 0 0 -0 -0 -0 -0 -0 -0 -0 -0 -0 -0 -0 -0 -0 -0 -0 -0 -0 -0 -0 -0 -0 -0 -0 -0 -0 0 0 -0 -0 -0 -0 -0 -0 -0 -0
0 0 0 0 0 0 0 0 -0 0 -0 -0 -0 -0 -0 -0 -0 -0 -0 -0 -0 -0 -0 -0 -0 -0 -0 -0 -0 -0 -0 -0 0 0 0 -0 -0 -0 -0 -0 -0 -0 -0
0 0 0 0 0 0 0 0 -0 -0 -0 -0 -0 -0 -0 -0 -0 -0 -0 -0 -0 -0 -0 -0 -0 -0 -0 -0 -0 -0 -0 -0 -0 0 0 0 -0 -0 -0 -0 -0 -0 -0
0 0 0 0 0 0 0 -0 -0 -0 -0 -0 -0 -0 -0 -0 -0 -0 -0 -0 -0 -0 -0 -0 -0 -0 -0 -0 -0 -0 -0 -0 0 0 0 0 -0 -0 -0 -0 -0 -0 0
0 -0 -0 0 0 0 0 -0 -0 -0 -0 -0 -0 -0 -0 -0 -0 -0 -0 -0 -0 -0 -0 -0 -0 -0 -0 -0 -0 -0 -0 0 0 0 0 0 -0 -0 0 0 0 0 0
-0 -0 -0 -0 -0 -0 -0 -0 -0 -0 -0 -0 -0 -0 -0 -0 -0 -0 0 0 -0 -0 -0 -0 -0 0 0 0 0 0 0 0 0 0 0 -0 0 0 0 0 0 0 0
-0 -0 -0 -0 -0 -0 -0 -0 -0 -0 -0 -0 -0 -0 -0 -0 0 0 0 0 0 0 0 0 0 0 0 0 0 0 0 0 0 0 0 0 0 0 0 0 0 0 0
-0 -0 -0 -0 -0 -0 -0 -0 -0 -0 -0 -0 -0 -0 0 0 0 0 0 0 0 0 0 0 0 0 0 0 0 0 0 0 0 0 0 0 0 0 0 0 0 0 0
-0 -0 -0 -0 -0 -0 -0 -0 -0 -0 -0 0 0 0 0 0 0 0 0 0 0 0 0 0 0 0 0 0 0 0 0 0 0 0 0 0 0 0 0 0 0 0 0
-0 -0 -0 -0 -0 -0 -0 -0 -0 -0 -0 -0 0 0 0 0 0 0 0 0 0 0 0 0 0 0 0 0 0 0 0 0 0 0 0 0 0 0 0 0 0 0 0
-0 -0 -0 -0 -0 -0 -0 -0 -0 -0 -0 -0 0 0 0 0 0 0 0 0 0 0 0 0 0 0 0 0 0 0 0 0 0 0 0 0 0 0 0 0 0 0 0
-0 -0 -0 -0 -0 -0 -0 -0 -0 -0 -0 -0 0 0 0 0 0 0 0 0 0 0 0 0 0 0 0 0 0 0 0 0 0 0 0 0 0 0 0 0 0 0 0
0 -0 -0 -0 -0 -0 -0 -0 0 0 0 0 0 0 0 0 0 0 0 0 0 0 0 0 0 0 0 0 0 0 0 0 0 0 0 0 0 0 0 0 0 0 0
0 0 0 0 0 -0 0 0 0 0 0 0 0 0 0 0 0 0 0 0 0 0 0 0 0 0 0 0 0 0 0 0 0 0 0 0 0 0 0 0 0 0 0
0 0 0 0 0 0 0 0 0 0 0 0 0 0 0 0 0 0 0 0 0 0 0 0 0 0 0 0 0 0 0 0 0 0 0 0 0 0 0 0 0 0 0
0 0 0 0 0 0 0 0 0 0 0 0 0 0 0 0 0 0 0 0 0 0 0 0 0 0 0 0 0 0 0 0 0 0 0 0 0 0 0 0 0 0 0
0 0 0 0 0 0 0 0 0 0 0 0 0 0 0 0 0 0 0 0 0 0 0 0 0 0 0 0 0 0 0 0 0 0 0 0 0 0 0 0 0 0 0
0 0 0 0 0 0 0 0 0 0 0 0 0 0 0 0 0 0 0 0 0 0 0 0 0 0 0 0 0 0 0 0 0 0 0 0 0 0 0 0 0 0 0
0 0 0 0 0 0 0 0 0 0 0 0 0 0 0 0 0 0 0 0 0 0 0 0 0 0 0 0 0 0 0 0 0 0 0 0 0 0 0 0 0 0 0
0 0 0 0 0 0 0 0 0 0 0 0 0 0 0 0 0 0 0 0 0 0 0 0 0 0 0 0 0 0 0 0 0 0 0 0 0 0 0 0 0 0 0
0 0 0 0 0 0 0 0 0 0 0 0 0 0 0 0 0 0 0 0 0 0 0 0 0 0 0 0 0 0 0 0 0 0 0 0 0 0 0 0 0 0 0
Wind_Speed_500mb
45 38 35 24 17 12 14 17 26 20 20 22 19 21 19 17 14 15 17 18 22 24 27 32 35 30 29 28 27 29 30 33 34 35 33 31 28 25 26 25 27 31 29
50 43 25 23 19 17 16 17 16 17 17 21 20 27 25 19 14 13 15 17 20 26 29 32 33 33 33 31 30 30 30 29 28 29 31 33 37 34 28 26 32 44 46
47 31 34 29 22 18 16 18 21 23 24 23 27 34 25 19 10 11 15 16 20 27 31 32 30 32 32 32 31 32 35 43 41 43 46 46 43 48 46 41 39 37 39
44 41 37 32 25 21 21 21 23 23 25 27 30 31 22 18 10 9 15 17 21 25 31 31 30 28 26 29 30 32 33 38 42 45 45 43 38 38 37 34 38 37 36
46 40 39 31 23 22 22 21 23 23 24 26 26 28 20 14 12 12 16 17 20 27 26 25 28 26 24 27 30 35 38 39 38 31 31 30 32 31 31 35 34 33 44
44 40 35 31 26 22 21 21 22 22 22 23 22 21 16 11 11 11 16 18 21 26 24 24 29 25 28 30 32 34 34 32 25 23 26 32 33 28 32 28 21 29 36
41 37 33 31 28 22 19 18 20 20 19 20 18 15 12 10 11 12 14 17 21 26 19 28 28 26 23 26 32 35 30 23 19 19 33 33 31 34 35 34 33 37 37
38 37 34 32 27 23 20 16 16 17 17 16 15 13 11 11 11 11 11 13 15 20 17 22 24 22 23 22 25 25 18 13 8 21 29 22 30 32 37 36 35 35 37
39 37 37 34 31 28 22 17 15 18 17 14 13 12 12 11 10 11 11 12 12 12 13 15 13 17 17 18 15 15 9 8 20 21 17 18 30 32 33 33 33 32 34
40 39 37 36 34 30 25 21 17 16 15 14 12 11 11 10 11 11 11 12 12 12 14 14 14 12 10 8 10 13 17 22 20 20 15 16 27 26 31 30 31 30 31
42 41 41 39 37 35 32 28 23 20 19 17 14 11 8 8 8 9 11 10 10 11 13 9 7 7 7 9 13 17 19 25 22 15 11 8 25 26 27 26 27 27 28
51 46 44 41 42 40 39 34 29 27 26 24 20 16 12 12 10 9 9 9 9 10 11 10 8 8 8 9 10 15 19 27 22 15 11 5 17 22 26 27 25 24 26
50 49 48 44 44 46 44 41 38 34 30 27 25 22 19 17 16 14 12 12 12 12 9 8 8 7 8 9 12 20 23 22 23 19 10 16 18 18 24 24 25 25 23
55 49 44 43 45 50 48 46 44 41 38 36 33 31 28 25 22 18 18 16 14 11 10 9 6 5 7 12 17 23 25 22 25 22 19 16 15 17 19 20 21 21 20
58 59 52 46 41 51 53 53 51 49 46 41 39 37 35 31 27 21 25 21 18 17 12 8 5 4 5 9 14 23 29 29 27 27 25 21 20 16 12 19 23 19 19
60 61 58 56 50 44 51 56 55 52 48 46 46 44 40 37 34 26 28 27 23 23 20 18 15 12 13 13 13 22 34 30 34 33 31 28 27 25 21 15 20 21 21
61 61 64 62 59 56 49 49 52 49 48 50 49 48 47 45 42 34 31 32 31 30 28 25 23 24 28 24 22 24 33 34 35 34 36 37 33 32 28 24 19 22 22
63 67 64 68 69 64 59 56 55 54 53 52 49 53 53 52 46 45 45 39 40 40 39 32 29 33 31 31 30 33 37 39 39 40 41 44 41 38 36 35 27 26 26
61 66 68 69 74 72 67 65 63 61 61 61 61 57 58 59 52 56 55 50 49 53 51 48 43 42 44 41 39 39 41 42 46 49 51 51 52 50 50 46 39 34 31
61 64 70 71 73 75 73 70 72 71 71 71 71 72 65 64 63 63 64 62 59 62 63 60 57 55 52 50 48 49 48 50 52 55 56 57 59 60 59 56 52 47 42
65 66 67 73 74 79 82 82 83 83 80 80 81 79 76 70 69 67 66 70 70 71 68 72 67 66 62 62 56 57 58 60 62 61 60 63 66 69 69 67 63 59 52
50 58 66 70 69 73 80 81 86 83 85 81 79 81 81 77 76 74 73 75 75 75 77 78 83 78 74 73 71 62 52 67 72 69 70 73 74 77 79 76 72 68 64
46 50 55 62 72 73 74 82 90 97 95 93 92 88 86 84 83 83 81 83 82 79 85 79 79 92 92 82 86 72 31 42 54 73 82 81 82 83 84 83 82 78 74
18 31 44 53 65 77 80 84 85 86 94 88 91 90 89 87 86 84 83 86 84 83 80 82 86 83 99 85 89 99 93 79 47 45 64 72 88 90 90 90 89 85 82
15 13 22 32 41 57 75 85 88 87 87 92 91 91 89 90 87 86 84 86 91 91 88 83 85 89 102 97 101 100 106 102 97 79 67 68 72 80 91 95 96 93 86
21 23 23 23 24 29 43 63 77 84 86 88 87 87 86 83 80 83 86 91 93 93 95 97 97 95 93 99 103 110 109 114 117 108 104 102 93 84 90 98 100 98 98
Wind_Direction_500mb
165 159 145 143 140 107 99 89 84 78 108 125 126 121 112 105 89 74 59 71 84 92 95 95 92 95 106 102 102 100 104 104 101 99 99 98 95 96 91 91 86 82 75
156 162 163 148 130 106 104 77 80 81 88 108 122 123 114 112 106 84 65 82 94 98 98 98 99 95 90 93 96 95 96 96 100 98 93 87 79 82 83 85 82 87 87
160 160 147 138 135 128 121 130 126 125 125 122 119 121 125 138 129 73 69 90 96 104 100 95 96 98 89 86 94 95 97 99 95 97 94 94 98 95 95 98 92 85 87
161 154 148 149 146 143 133 130 125 122 119 119 126 130 141 146 130 97 89 105 105 109 105 102 100 103 92 86 90 100 105 99 105 106 108 110 108 106 105 105 104 103 89
166 164 157 155 151 143 137 136 128 122 121 122 131 139 146 131 116 99 106 119 119 116 111 108 106 102 94 93 100 101 102 112 114 118 116 110 110 110 119 114 104 94 90
162 163 167 168 166 148 148 146 137 129 124 119 127 143 146 136 128 116 123 128 130 125 120 115 109 105 94 99 105 110 115 111 122 119 115 106 105 108 101 109 104 103 94
173 174 174 177 175 163 157 149 143 132 123 116 116 123 135 129 125 124 129 135 138 129 133 123 118 119 114 114 116 120 119 116 106 105 110 106 101 98 95 99 99 95 94
177 177 179 181 179 180 174 159 149 147 136 125 116 115 112 114 121 126 129 133 142 147 143 138 143 140 132 129 126 131 131 126 122 121 116 110 105 104 100 97 97 94 93
186 187 185 187 187 191 187 176 169 161 155 142 133 117 107 112 127 130 132 134 145 150 161 157 155 151 137 134 146 159 175 149 134 127 122 106 101 98 100 96 97 96 93
194 198 195 194 197 197 197 197 190 174 170 165 152 137 124 125 128 126 133 138 152 162 170 173 167 161 158 153 173 184 170 144 151 138 126 110 107 111 105 100 99 96 96
196 202 202 204 205 205 206 205 199 194 191 188 183 174 158 156 147 146 141 142 155 164 176 180 183 181 184 162 155 163 175 161 164 156 138 137 110 109 105 105 104 101 99
199 200 202 207 211 210 211 211 210 209 205 204 205 201 194 195 191 182 166 166 168 173 191 188 190 193 195 206 204 185 175 167 180 191 184 188 139 128 115 112 108 106 105
203 209 210 212 214 215 215 215 216 219 217 215 217 217 219 216 208 204 198 194 191 196 193 179 180 196 217 222 216 185 183 183 198 209 198 166 156 144 127 125 117 113 110
212 216 216 215 219 220 221 223 225 227 225 222 223 225 226 224 216 218 209 207 208 207 196 188 190 210 225 225 224 194 193 194 211 216 208 190 163 159 150 137 129 121 118
219 222 225 223 223 225 224 226 229 230 229 231 231 234 234 229 227 231 215 214 215 207 212 210 206 217 252 250 231 206 199 203 209 207 190 189 184 178 174 158 136 136 132
226 228 229 231 234 233 232 231 232 235 236 236 239 240 240 235 234 238 229 224 222 211 210 237 247 270 269 262 238 223 222 229 224 196 198 200 195 189 194 202 168 154 145
230 231 232 236 238 240 242 239 236 239 240 239 237 241 242 240 236 239 241 242 236 226 225 230 255 266 258 243 241 232 235 242 235 222 216 220 207 199 200 196 187 170 167
235 235 235 235 238 242 244 244 240 240 242 245 245 247 246 244 239 240 238 244 244 240 239 255 257 262 266 261 249 243 235 242 242 239 238 237 234 230 218 212 200 189 187
243 240 239 237 238 241 244 246 246 247 247 247 249 250 250 251 246 238 241 243 245 244 243 242 243 252 254 251 244 241 242 245 246 243 243 242 241 241 244 252 251 237 228
247 246 242 242 242 242 246 246 246 246 249 248 251 251 252 254 253 244 242 243 246 246 246 248 247 248 247 244 239 236 238 243 244 246 247 246 240 245 248 250 252 251 250
248 245 244 242 243 241 241 241 242 242 244 246 248 251 252 255 256 252 252 249 248 249 253 250 247 246 243 240 236 238 239 240 242 243 245 248 247 244 246 247 249 251 247
254 249 246 245 243 244 244 245 245 248 249 250 252 253 253 252 254 254 254 256 254 253 257 252 250 247 241 242 232 235 238 242 244 245 244 244 245 245 245 244 245 245 246
258 258 255 253 249 248 247 246 246 245 249 250 250 252 253 253 253 255 256 256 258 256 254 257 260 249 246 249 238 235 222 237 251 249 248 248 246 246 246 245 245 244 243
283 264 260 258 255 252 249 248 250 251 252 258 257 258 257 256 256 257 258 257 259 259 257 261 258 258 256 250 245 237 239 247 242 251 255 252 251 248 248 247 244 244 243
332 312 273 266 263 259 254 252 252 253 257 258 260 261 259 258 258 256 255 257 259 260 258 260 260 260 257 254 257 253 246 243 246 249 254 257 252 256 253 248 248 243 242
357 344 332 319 299 277 263 257 258 258 258 261 265 265 266 266 263 258 259 259 260 262 263 264 265 263 263 261 259 263 255 253 251 247 251 256 256 262 261 253 248 243 241
Wind_Speed_850mb
45 38 35 24 17 12 14 17 26 20 20 22 19 21 19 17 14 15 17 18 22 24 27 32 35 30 29 28 27 29 30 33 34 35 33 31 28 25 26 25 27 31 29
50 43 25 23 19 17 16 17 16 17 17 21 20 27 25 19 14 13 15 17 20 26 29 32 33 33 33 31 30 30 30 29 28 29 31 33 37 34 28 26 32 44 46
47 31 34 29 22 18 16 18 21 23 24 23 27 34 25 19 10 11 15 16 20 27 31 32 30 32 32 32 31 32 35 43 41 43 46 46 43 48 46 41 39 37 39
44 41 37 32 25 21 21 21 23 23 25 27 30 31 22 18 10 9 15 17 21 25 31 31 30 28 26 29 30 32 33 38 42 45 45 43 38 38 37 34 38 37 36
46 40 39 31 23 22 22 21 23 23 24 26 26 28 20 14 12 12 16 17 20 27 26 25 28 26 24 27 30 35 38 39 38 31 31 30 32 31 31 35 34 33 44
44 40 35 31 26 22 21 21 22 22 22 23 22 21 16 11 11 11 16 18 21 26 24 24 29 25 28 30 32 34 34 32 25 23 26 32 33 28 32 28 21 29 36
41 37 33 31 28 22 19 18 20 20 19 20 18 15 12 10 11 12 14 17 21 26 19 28 28 26 23 26 32 35 30 23 19 19 33 33 31 34 35 34 33 37 37
38 37 34 32 27 23 20 16 16 17 17 16 15 13 11 11 11 11 11 13 15 20 17 22 24 22 23 22 25 25 18 13 8 21 29 22 30 32 37 36 35 35 37
39 37 37 34 31 28 22 17 15 18 17 14 13 12 12 11 10 11 11 12 12 12 13 15 13 17 17 18 15 15 9 8 20 21 17 18 30 32 33 33 33 32 34
40 39 37 36 34 30 25 21 17 16 15 14 12 11 11 10 11 11 11 12 12 12 14 14 14 12 10 8 10 13 17 22 20 20 15 16 27 26 31 30 31 30 31
42 41 41 39 37 35 32 28 23 20 19 17 14 11 8 8 8 9 11 10 10 11 13 9 7 7 7 9 13 17 19 25 22 15 11 8 25 26 27 26 27 27 28
51 46 44 41 42 40 39 34 29 27 26 24 20 16 12 12 10 9 9 9 9 10 11 10 8 8 8 9 10 15 19 27 22 15 11 5 17 22 26 27 25 24 26
50 49 48 44 44 46 44 41 38 34 30 27 25 22 19 17 16 14 12 12 12 12 9 8 8 7 8 9 12 20 23 22 23 19 10 16 18 18 24 24 25 25 23
55 49 44 43 45 50 48 46 44 41 38 36 33 31 28 25 22 18 18 16 14 11 10 9 6 5 7 12 17 23 25 22 25 22 19 16 15 17 19 20 21 21 20
58 59 52 46 41 51 53 53 51 49 46 41 39 37 35 31 27 21 25 21 18 17 12 8 5 4 5 9 14 23 29 29 27 27 25 21 20 16 12 19 23 19 19
60 61 58 56 50 44 51 56 55 52 48 46 46 44 40 37 34 26 28 27 23 23 20 18 15 12 13 13 13 22 34 30 34 33 31 28 27 25 21 15 20 21 21
61 61 64 62 59 56 49 49 52 49 48 50 49 48 47 45 42 34 31 32 31 30 28 25 23 24 28 24 22 24 33 34 35 34 36 37 33 32 28 24 19 22 22
63 67 64 68 69 64 59 56 55 54 53 52 49 53 53 52 46 45 45 39 40 40 39 32 29 33 31 31 30 33 37 39 39 40 41 44 41 38 36 35 27 26 26
61 66 68 69 74 72 67 65 63 61 61 61 61 57 58 59 52 56 55 50 49 53 51 48 43 42 44 41 39 39 41 42 46 49 51 51 52 50 50 46 39 34 31
61 64 70 71 73 75 73 70 72 71 71 71 71 72 65 64 63 63 64 62 59 62 63 60 57 55 52 50 48 49 48 50 52 55 56 57 59 60 59 56 52 47 42
65 66 67 73 74 79 82 82 83 83 80 80 81 79 76 70 69 67 66 70 70 71 68 72 67 66 62 62 56 57 58 60 62 61 60 63 66 69 69 67 63 59 52
50 58 66 70 69 73 80 81 86 83 85 81 79 81 81 77 76 74 73 75 75 75 77 78 83 78 74 73 71 62 52 67 72 69 70 73 74 77 79 76 72 68 64
46 50 55 62 72 73 74 82 90 97 95 93 92 88 86 84 83 83 81 83 82 79 85 79 79 92 92 82 86 72 31 42 54 73 82 81 82 83 84 83 82 78 74
18 31 44 53 65 77 80 84 85 86 94 88 91 90 89 87 86 84 83 86 84 83 80 82 86 83 99 85 89 99 93 79 47 45 64 72 88 90 90 90 89 85 82
15 13 22 32 41 57 75 85 88 87 87 92 91 91 89 90 87 86 84 86 91 91 88 83 85 89 102 97 101 100 106 102 97 79 67 68 72 80 91 95 96 93 86
21 23 23 23 24 29 43 63 77 84 86 88 87 87 86 83 80 83 86 91 93 93 95 97 97 95 93 99 103 110 109 114 117 108 104 102 93 84 90 98 100 98 98
Wind_Direction_850mb
165 159 145 143 140 107 99 89 84 78 108 125 126 121 112 105 89 74 59 71 84 92 95 95 92 95 106 102 102 100 104 104 101 99 99 98 95 96 91 91 86 82 75
156 162 163 148 130 106 104 77 80 81 88 108 122 123 114 112 106 84 65 82 94 98 98 98 99 95 90 93 96 95 96 96 100 98 93 87 79 82 83 85 82 87 87
160 160 147 138 135 128 121 130 126 125 125 122 119 121 125 138 129 73 69 90 96 104 100 95 96 98 89 86 94 95 97 99 95 97 94 94 98 95 95 98 92 85 87
161 154 148 149 146 143 133 130 125 122 119 119 126 130 141 146 130 97 89 105 105 109 105 102 100 103 92 86 90 100 105 99 105 106 108 110 108 106 105 105 104 103 89
166 164 157 155 151 143 137 136 128 122 121 122 131 139 146 131 116 99 106 119 119 116 111 108 106 102 94 93 100 101 102 112 114 118 116 110 110 110 119 114 104 94 90
162 163 167 168 166 148 148 146 137 129 124 119 127 143 146 136 128 116 123 128 130 125 120 115 109 105 94 99 105 110 115 111 122 119 115 106 105 108 101 109 104 103 94
173 174 174 177 175 163 157 149 143 132 123 116 116 123 135 129 125 124 129 135 138 129 133 123 118 119 114 114 116 120 119 116 106 105 110 106 101 98 95 99 99 95 94
177 177 179 181 179 180 174 159 149 147 136 125 116 115 112 114 121 126 129 133 142 147 143 138 143 140 132 129 126 131 131 126 122 121 116 110 105 104 100 97 97 94 93
186 187 185 187 187 191 187 176 169 161 155 142 133 117 107 112 127 130 132 134 145 150 161 157 155 151 137 134 146 159 175 149 134 127 122 106 101 98 100 96 97 96 93
194 198 195 194 197 197 197 197 190 174 170 165 152 137 124 125 128 126 133 138 152 162 170 173 167 161 158 153 173 184 170 144 151 138 126 110 107 111 105 100 99 96 96
196 202 202 204 205 205 206 205 199 194 191 188 183 174 158 156 147 146 141 142 155 164 176 180 183 181 184 162 155 163 175 161 164 156 138 137 110 109 105 105 104 101 99
199 200 202 207 211 210 211 211 210 209 205 204 205 201 194 195 191 182 166 166 168 173 191 188 190 193 195 206 204 185 175 167 180 191 184 188 139 128 115 112 108 106 105
203 209 210 212 214 215 215 215 216 219 217 215 217 217 219 216 208 204 198 194 191 196 193 179 180 196 217 222 216 185 183 183 198 209 198 166 156 144 127 125 117 113 110
212 216 216 215 219 220 221 223 225 227 225 222 223 225 226 224 216 218 209 207 208 207 196 188 190 210 225 225 224 194 193 194 211 216 208 190 163 159 150 137 129 121 118
219 222 225 223 223 225 224 226 229 230 229 231 231 234 234 229 227 231 215 214 215 207 212 210 206 217 252 250 231 206 199 203 209 207 190 189 184 178 174 158 136 136 132
226 228 229 231 234 233 232 231 232 235 236 236 239 240 240 235 234 238 229 224 222 211 210 237 247 270 269 262 238 223 222 229 224 196 198 200 195 189 194 202 168 154 145
230 231 232 236 238 240 242 239 236 239 240 239 237 241 242 240 236 239 241 242 236 226 225 230 255 266 258 243 241 232 235 242 235 222 216 220 207 199 200 196 187 170 167
235 235 235 235 238 242 244 244 240 240 242 245 245 247 246 244 239 240 238 244 244 240 239 255 257 262 266 261 249 243 235 242 242 239 238 237 234 230 218 212 200 189 187
243 240 239 237 238 241 244 246 246 247 247 247 249 250 250 251 246 238 241 243 245 244 243 242 243 252 254 251 244 241 242 245 246 243 243 242 241 241 244 252 251 237 228
247 246 242 242 242 242 246 246 246 246 249 248 251 251 252 254 253 244 242 243 246 246 246 248 247 248 247 244 239 236 238 243 244 246 247 246 240 245 248 250 252 251 250
248 245 244 242 243 241 241 241 242 242 244 246 248 251 252 255 256 252 252 249 248 249 253 250 247 246 243 240 236 238 239 240 242 243 245 248 247 244 246 247 249 251 247
254 249 246 245 243 244 244 245 245 248 249 250 252 253 253 252 254 254 254 256 254 253 257 252 250 247 241 242 232 235 238 242 244 245 244 244 245 245 245 244 245 245 246
258 258 255 253 249 248 247 246 246 245 249 250 250 252 253 253 253 255 256 256 258 256 254 257 260 249 246 249 238 235 222 237 251 249 248 248 246 246 246 245 245 244 243
283 264 260 258 255 252 249 248 250 251 252 258 257 258 257 256 256 257 258 257 259 259 257 261 258 258 256 250 245 237 239 247 242 251 255 252 251 248 248 247 244 244 243
332 312 273 266 263 259 254 252 252 253 257 258 260 261 259 258 258 256 255 257 259 260 258 260 260 260 257 254 257 253 246 243 246 249 254 257 252 256 253 248 248 243 242
357 344 332 319 299 277 263 257 258 258 258 261 265 265 266 266 263 258 259 259 260 262 263 264 265 263 263 261 259 263 255 253 251 247 251 256 256 262 261 253 248 243 241